Chicago Midway, IL

7:29 PM CST on December 13, 2019 (GMT -0600)
Chicago-Midway

Weather History for KMDW - October, 2019

Change the Weather History Date:

Monday, October 14, 2019

  Actual Average Record
Temperature  
Mean Temperature 47 °F 55 °F  
Max Temperature 55 °F 64 °F 89 °F (1975)
Min Temperature 39 °F 46 °F 28 °F (1937)
Degree Days  
Heating Degree Days 18 11  
Month to date heating degree days 108 120  
Since 1 July heating degree days 109 202  
Cooling Degree Days 0 0  
Month to date cooling degree days 21 13  
Year to date cooling degree days 1131 1042  
Moisture  
Dew Point 32 °F    
Average Humidity 55    
Maximum Humidity 73    
Minimum Humidity 33    
Precipitation  
Precipitation 0.00 in 0.11 in 5.20 in (2017)
Month to date precipitation 1.43 1.41  
Year to date precipitation 39.25 31.27  
Sea Level Pressure  
Sea Level Pressure 30.06 in    
Wind  
Wind Speed 9 mph (WSW)    
Max Wind Speed 15 mph    
Max Gust Speed 20 mph    
Visibility 10 miles    
Events      
T = Trace of Precipitation, MM = Missing Value Source: NWS Daily Summary

Daily Weather History Graph

Daily Weather History Graph

Search for Another Location

Airport or City:

Astronomy

Oct. 14, 2019 Rise Set
Actual Time 7:01 AM CDT 6:11 PM CDT
Civil Twilight 6:33 AM CDT 6:39 PM CDT
Nautical Twilight 6:01 AM CDT 7:11 PM CDT
Astronomical Twilight 5:29 AM CDT 7:43 PM CDT
Moon 7:01 PM CDT 7:33 AM CDT
Length of Visible Light 12h 05m
Length of Day
11h 09m
Full, 99% of the Moon is Illuminated
Oct 14
Full
Oct 21
Last Quarter
Oct 27
New
Nov 4
First Quarter
Nov 12
Full

Hourly Weather History & Observations

Time (CDT) Temp. Windchill Dew Point Humidity Pressure Visibility Wind Dir Wind Speed Gust Speed Precip Events Conditions
12:53 AM 45.0 °F 40.1 °F 30.9 °F 58% 29.98 in 10.0 mi WNW 9.2 mph - N/A   Mostly Cloudy
1:53 AM 43.0 °F 38.2 °F 30.0 °F 60% 29.99 in 10.0 mi West 8.1 mph - N/A   Scattered Clouds
2:53 AM 42.1 °F 37.1 °F 30.9 °F 65% 30.00 in 10.0 mi West 8.1 mph - N/A   Partly Cloudy
3:53 AM 41.0 °F 36.4 °F 30.9 °F 67% 30.01 in 10.0 mi West 6.9 mph - N/A   Clear
4:53 AM 39.9 °F 35.1 °F 30.9 °F 70% 30.03 in 10.0 mi West 6.9 mph - N/A   Clear
5:53 AM 39.0 °F 34.8 °F 30.9 °F 73% 30.04 in 10.0 mi West 5.8 mph - N/A   Clear
6:53 AM 39.9 °F 35.1 °F 30.9 °F 70% 30.06 in 10.0 mi West 6.9 mph - N/A   Partly Cloudy
7:53 AM 39.9 °F 35.1 °F 32.0 °F 73% 30.08 in 10.0 mi West 6.9 mph - N/A   Partly Cloudy
8:53 AM 43.0 °F 37.2 °F 32.0 °F 65% 30.11 in 10.0 mi NW 10.4 mph - N/A   Partly Cloudy
9:53 AM 46.0 °F 41.4 °F 32.0 °F 58% 30.12 in 10.0 mi West 9.2 mph - N/A   Partly Cloudy
10:53 AM 46.9 °F - 30.0 °F 52% 30.12 in 10.0 mi WSW 10.4 mph - N/A   Partly Cloudy
11:53 AM 48.9 °F - 30.0 °F 48% 30.11 in 10.0 mi West 11.5 mph - N/A   Partly Cloudy
12:53 PM 51.1 °F - 32.0 °F 48% 30.10 in 10.0 mi West 10.4 mph 18.4 mph N/A   Partly Cloudy
1:53 PM 52.0 °F - 32.0 °F 47% 30.08 in 10.0 mi Variable 5.8 mph - N/A   Partly Cloudy
2:53 PM 54.0 °F - 33.1 °F 45% 30.07 in 10.0 mi WSW 12.7 mph 17.3 mph N/A   Scattered Clouds
3:53 PM 55.0 °F - 34.0 °F 45% 30.07 in 10.0 mi West 6.9 mph - N/A   Mostly Cloudy
4:53 PM 54.0 °F - 33.1 °F 45% 30.07 in 10.0 mi WSW 10.4 mph - N/A   Mostly Cloudy
5:53 PM 52.0 °F - 32.0 °F 47% 30.07 in 10.0 mi SSW 6.9 mph - N/A   Mostly Cloudy
6:53 PM 51.1 °F - 33.1 °F 50% 30.07 in 10.0 mi SSW 3.5 mph - N/A   Partly Cloudy
7:53 PM 51.1 °F - 33.1 °F 50% 30.07 in 10.0 mi SSE 3.5 mph - N/A   Clear
8:53 PM 50.0 °F - 34.0 °F 54% 30.07 in 10.0 mi SSE 5.8 mph - N/A   Clear
9:53 PM 50.0 °F - 34.0 °F 54% 30.07 in 10.0 mi SSE 5.8 mph - N/A   Scattered Clouds
10:53 PM 48.0 °F - 34.0 °F 58% 30.06 in 10.0 mi SSE 5.8 mph - N/A   Scattered Clouds
11:53 PM 46.0 °F 43.9 °F 34.0 °F 63% 30.06 in 10.0 mi SE 4.6 mph - N/A   Scattered Clouds